Showing default

CONNECTA IOT-9, 64534

Orbit data source: Space-Track

CONNECTA IOT-9, 64534 is a payload satellite owned by Plan-S (TR) in SSO that was launched on Mon, 23 Jun 2025 UTC via an FALCON 9 launch vehicle from the Air Force Western Test Range (AFWTR). Payload-class satellites include a variety of spacecraft equipped with specific instruments for various scientific and technological missions. These include communications satellites like Starlink; space stations such as the ISS; scientific satellites like the Hubble; Earth observation satellites from companies like Planet Labs, Umbra, and HawkEye 360; GPS; miniature CubeSats for education and research; and military/defense satellites.

Loading next visibility...
Identifier
64534, 2025-135G
Orbit
SSO
Country
Flag of UnknownUnknown / TURK
Related business
Manufacturer
Plan-S
Mission
Operational Commercial Communications
Bus & Motor
CUBESAT 6U, Unknown motor
Mass
10 kg wet, 10 kg dry
Launch date (UTC)
2025-06-23 (4 months ago)
Launch vehicle
FALCON 9
Launch site
Air Force Western Test Range (AFWTR)
Object type
Payload
Rocket body
Debris
Shape & HBR
Box, 0.1 m
Radar Cross Section
0.080 m², Medium (>0.1 m² and < 1m²)

Expand to show TLE details & history
Last TLE update: 10 hours ago

TLE from 10 hours ago
0 CONNECTA IOT-9
1 64534U 25135G   25293.84470377  .00006445  00000-0  32176-3 0  9990
2 64534  97.4609  46.4677 0003698 281.0314  79.0503 15.17828338 18489
Epoch: 2025-10-20T20:16Z
TLE epoch observation values (Epoch: 2025-10-20T20:16:22.405Z)
Latitude
-0.00011°
Longitude
72.83318°
Altitude
515.008 km
Speed
7.606 km/s
True Right ascension
03h 05m 52s
True Declination
0° 00' 00"
Sunlit
Object was in full shadow at epoch
Visualization orbit readout
Latitude
Unknown
Longitude
Unknown
Altitude
Unknown
Speed
Unknown
Apparent Right ascension
Unknown
Apparent Declination
Unknown
Sunlit
N/A
Visualization observer readout
Local Sidereal Time
01:26:43
Azimuth
Unknown
Elevation
Unknown
Doppler factor
Unknown
Orbital elements
Apogee altitude
511.923 km
Perigee altitude
506.829 km
Semi-major axis
6,887.513 km
Eccentricity
0.00037
Inclination
97.4609°
RAAN
46.4677°
Arg. of periapsis
281.0314°
True anomaly
79.09191°
Mean anomaly
79.0503°
Eccentric anomaly
79.0711°
Mean motion
3.79708 °/min
Orbital period
94.81 mins
BSTAR
0.00032176
Loading maneuver chart data...
Computing Atmospheric mass density...
Loading historical data...
Loading historical data...
Loading historical data...
Loading historical data...
Loading historical data...
Loading historical data...
Loading historical data...

Documentation

Showing up to 5 results
|